map of LIL home
LIL - Airport
Location
City:  Lille, Nord-Pas-de-Calais, France
Name:Lesquin
ICAO:LFQQ
IATA:LIL

Details
Type:Airport (Aerodrome, Airfield)
Use:Public/Civil, International (customs port of entry)
Latitude:5033'48"N (50.563333)
Longitude:305'13"E (3.086944)
Elevation:157 ft (48 m)
Variation:0.53E (WMM2015 magnetic declination)
0.14 annual change
Runways:2
Longest:9268 × 148 ft (2825 × 45 m)

Time
Time Zone:UTC+1 (DST+2)
Local Time:

Weather
METAR:LFQQ 291500Z AUTO 23012KT 9999 OVC023 18/13 Q1015 TEMPO 4800 RA BKN013
TAF:LFQQ 291100Z 2912/3018 22013KT 9999 BKN025
TEMPO 2915/2918 4800 RA BKN013
BECMG 2920/2923 24003KT

Related Locations
Nearby:
Farthest:CHT: 11963 mi / 19252 km
Waitangi [Tuuta], Chatham Islands, NZ

Find:

   beyond  
but within

Other Information
Maps:
NOTAMs:
Links:
Sources:

  
flag of France
flag of Nord-Pas-de-Calais
  

Sectional Chart

Flight Planning
at skyvector.com

Satellite Image

Google Maps Satellite view

 

Copyright © 2004-2016 Karl L. Swartz. All rights reserved.
The Great Circle Mapper name and logo are trademarks of the Great Circle Mapper.
All other trademarks mentioned herein belong to their respective owners.
Please see credits for attibutions and further copyright information.

  Follow gcmap on Facebook Follow gcmap on Twitter Follow gcmap on Google+ GCmap on LinkedIn

hCard Microformat

Geo Microformat